Mobridge, SD

5:10 AM CST on February 23, 2018 (GMT -0600)
Mobridge Municipal

Weather History for KMBG - January, 2013

Change the Weather History Date:

Thursday, January 10, 2013

  Actual Average Record
Temperature  
Mean Temperature 37 °F 16 °F  
Max Temperature 41 °F 25 °F 58 °F (1990)
Min Temperature 33 °F 6 °F -28 °F (1982)
Degree Days  
Heating Degree Days 28 49  
Month to date heating degree days 423 490  
Since 1 July heating degree days 3605 3706  
Cooling Degree Days 0 0  
Month to date cooling degree days 0 0  
Year to date cooling degree days 0 0  
Moisture  
Dew Point 29 °F    
Average Humidity 78    
Maximum Humidity 96    
Minimum Humidity 59    
Precipitation  
Precipitation 0.00 in 0.01 in 0.40 in (1913)
Month to date precipitation 0.01 0.12  
Year to date precipitation 0.01 0.12  
Snow  
Snow 0.00 in - - ()
Month to date snowfall 0.2  
Since 1 July snowfall 9.5  
Snow Depth 1.00 in    
Sea Level Pressure  
Sea Level Pressure 29.64 in    
Wind  
Wind Speed 18 mph (SSE)    
Max Wind Speed 29 mph    
Max Gust Speed 33 mph    
Visibility 10 miles    
Events      
T = Trace of Precipitation, MM = Missing Value Source: NWS Daily Summary

Daily Weather History Graph

Daily Weather History Graph

Search for Another Location

Airport or City:

Trip Planner

Search our weather history database for the weather conditions in past years. The results will help you decide how hot, cold, wet, or windy it might be!

Date:

Astronomy

Jan. 10, 2013 Rise Set
Actual Time 8:20 AM CST 5:18 PM CST
Civil Twilight 7:46 AM CST 5:52 PM CST
Nautical Twilight 7:09 AM CST 6:29 PM CST
Astronomical Twilight 6:34 AM CST 7:04 PM CST
Moon 7:01 AM CST (1/10) 4:29 PM CST (1/10)
Length of Visible Light 10h 05m
Length of Day
8h 58m
Waning Crescent, 2% of the Moon is Illuminated
Jan 10
Waning Crescent
Jan 11
New
Jan 18
First Quarter
Jan 26
Full
Feb 3
Last Quarter

Hourly Weather History & Observations

Time (CST) Temp. Windchill Dew Point Humidity Pressure Visibility Wind Dir Wind Speed Gust Speed Precip Events Conditions
12:52 AM 35.1 °F 24.5 °F 28.0 °F 76% 29.87 in 10.0 mi SSE 18.4 mph - N/A   Clear
1:52 AM 33.1 °F 23.9 °F 27.0 °F 78% 29.85 in - SSE 12.7 mph - N/A   Clear
2:52 AM 35.1 °F 23.5 °F 28.0 °F 76% 29.83 in - SSE 21.9 mph - N/A   Clear
3:52 AM 35.1 °F 22.5 °F 27.0 °F 72% 29.81 in - SSE 26.5 mph - N/A   Clear
4:52 AM 36.0 °F 24.7 °F 27.0 °F 70% 29.78 in - SSE 21.9 mph - N/A   Clear
5:52 AM 35.1 °F 23.5 °F 27.0 °F 72% 29.77 in - SSE 21.9 mph - N/A   Clear
6:52 AM 36.0 °F 25.0 °F 26.1 °F 67% 29.75 in - SSE 20.7 mph - N/A   Clear
7:52 AM 35.1 °F 22.7 °F 25.0 °F 67% 29.75 in 10.0 mi SE 25.3 mph - N/A   Clear
8:52 AM 36.0 °F 23.9 °F 25.0 °F 64% 29.75 in 10.0 mi SSE 25.3 mph 32.2 mph N/A   Clear
9:52 AM 37.0 °F 26.7 °F 26.1 °F 65% 29.74 in 10.0 mi SE 19.6 mph - N/A   Clear
10:52 AM 37.9 °F 26.6 °F 26.1 °F 62% 29.70 in 10.0 mi SSE 25.3 mph - N/A   Clear
11:52 AM 39.9 °F 30.5 °F 27.0 °F 60% 29.67 in 10.0 mi SSE 19.6 mph 25.3 mph N/A   Clear
12:52 PM 39.9 °F 30.2 °F 28.9 °F 65% 29.62 in 10.0 mi SE 20.7 mph 25.3 mph N/A   Clear
1:52 PM 39.9 °F 29.7 °F 28.9 °F 65% 29.59 in 10.0 mi SSE 23.0 mph 32.2 mph N/A   Clear
2:52 PM 39.0 °F 29.9 °F 30.0 °F 70% 29.57 in 10.0 mi SSE 17.3 mph 25.3 mph N/A   Clear
3:52 PM 39.9 °F 31.1 °F 28.9 °F 65% 29.54 in 10.0 mi SSE 17.3 mph 26.5 mph N/A   Clear
4:52 PM 39.9 °F 30.5 °F 30.0 °F 68% 29.52 in 10.0 mi South 19.6 mph - N/A   Clear
5:52 PM 37.9 °F 30.0 °F 30.0 °F 73% 29.51 in 10.0 mi SSE 12.7 mph - N/A   Clear
6:52 PM 37.0 °F 30.4 °F 30.9 °F 79% 29.49 in 10.0 mi SSE 9.2 mph - N/A   Clear
7:52 PM 36.0 °F 28.0 °F 32.0 °F 86% 29.48 in 10.0 mi SSE 11.5 mph - N/A   Clear
8:52 PM 35.1 °F 26.4 °F 32.0 °F 89% 29.47 in 10.0 mi SSE 12.7 mph - N/A   Clear
9:52 PM 35.1 °F 27.4 °F 32.0 °F 89% 29.46 in 10.0 mi SE 10.4 mph - N/A   Clear
10:52 PM 34.0 °F 26.0 °F 32.0 °F 92% 29.45 in 10.0 mi SSE 10.4 mph - N/A   Clear
11:52 PM 34.0 °F 27.2 °F 32.0 °F 92% 29.45 in 9.0 mi SSE 8.1 mph - N/A   Clear